Regional Weather Roundup
Issued by NWS

Home | Current Version | Previous Version | Graphics & Text | Print | Product List | Glossary On
Versions: 1 2 3 4 5 6 7 8 9 10 11 12 13 14 15 16 17 18 19 20 21 22 23 24 25 26 27 28
000
ASUS45 KCYS 200710
RWRWY

WYOMING REGIONAL WEATHER ROUNDUP
NATIONAL WEATHER SERVICE CHEYENNE WY
1200 AM MST MON NOV 20 2017

NOTE:  "FAIR" INDICATES FEW OR NO CLOUDS BELOW 12,000 FEET
WITH NO SIGNIFICANT WEATHER AND/OR OBSTRUCTIONS TO VISIBILITY.

WYZ001-200800-
YELLOWSTONE NATIONAL PARK

CITY           SKY/WX    TMP DP  RH WIND       PRES   REMARKS
LK YELLOWSTONE   N/A     12  10  92 VRB5      30.00F WCI   4
W YELLOWSTONE  NOT AVBL

$$
WYZ002>013-054>058-071-098>099-200800-
NORTHERN WYOMING

CITY           SKY/WX    TMP DP  RH WIND       PRES   REMARKS
JACKSON        FAIR      17  13  84 N7          N/A  WCI   8
CODY           FAIR      47   2  15 W15G28    29.79F
GREYBULL       FAIR      25  22  88 SW5       29.82S WCI  19
WORLAND        FAIR      24  22  91 SE7       29.80F WCI  16
SHERIDAN       FAIR      36  21  54 CALM      29.66F
BUFFALO        FAIR      47  10  22 W7        29.70F
GILLETTE       FAIR      44  10  25 SW23G30   29.69S
HULETT         FAIR      41  12  30 SW9       29.71S
NEWCASTLE      FAIR      32  16  51 E7        29.78S WCI  26

$$
WYZ014>020-022>026-101>103-200800-
CENTRAL WYOMING

CITY           SKY/WX    TMP DP  RH WIND       PRES   REMARKS
BIG PINEY      FAIR       5   2  87 E5        30.07S WCI  -4
PINEDALE       FAIR      14  10  85 NW7       30.06S WCI   4
DUBOIS         FAIR      30   5  34 NW25G32   29.92S WCI  16
LANDER         FAIR      29  12  49 NW7       29.86F WCI  22
RIVERTON       FAIR      29  13  51 SW10      29.87S WCI  20
CASPER         FAIR      38  12  34 SW22G31   29.86S WCI  27
DOUGLAS        FAIR      34  14  43 E3        29.81F

$$
WYZ021-027>030-104>119-200800-
SOUTHERN WYOMING

CITY           SKY/WX    TMP DP  RH WIND       PRES   REMARKS
EVANSTON       FAIR      26  16  65 SW10      30.07F WCI  16
KEMMERER       FAIR      23  12  63 SW8       30.05  WCI  14
FORT BRIDGER   FAIR      30  10  42 W3        30.09S
ROCK SPRINGS   FAIR      22  15  75 CALM      30.06S
DIXON          FAIR      14   9  79 CALM      30.14F
RAWLINS        FAIR      34  14  43 SW24G31   30.01F WCI  21
SARATOGA       FAIR      25  12  58 CALM      30.04F
LARAMIE        FAIR      34   8  33 SW22      29.96S WCI  22
CHEYENNE       FAIR      42   3  19 W17       29.91F
TORRINGTON     FAIR      46  10  23 W22G28    29.81F
PINE BLUFFS    FAIR      39   5  24 MISG      29.87F

$$




USA.gov is the U.S. government's official web portal to all federal, state and local government web resources and services.